Torna al catalogo

INTELSAT 35E

AttivoComunicazioniGEO
NORAD 42818·PAYLOAD· XX

Lanciato Jul 5, 2017 da Cape Canaveral Space Force Station

Loading…

TLE

AggiornatoSource: CelesTrak SupGP

Epoca: Sep 14, 2026, 14:13 UTC

1 42818C 17041A   26257.59280093 -.00000175  00000+0  00000+0 0  2573
2 42818   0.0408 350.8973 0002098 182.5994 358.9883  1.00272480    18

Traccia INTELSAT 35E in tempo reale con AllMySat

Download on the App Store